Location: Area 52 Observatory
(34.2620°N, 119.2590°W)
Time: 18:48:10
(UTC-07:00)

Envisat - Visible Passes

Search period start: 21 March 2019 00:00
Search period end: 31 March 2019 00:00
Orbit: 764 x 766 km, 98.2° (Epoch: 21 March)

Date Brightness Start Highest point End Pass type
(mag) Time Alt. Az. Time Alt. Az. Time Alt. Az.
21 Mar 5.3 20:35:15 10° SSW 20:39:19 24° W 20:43:24 10° NW visible
22 Mar 3.7 19:57:27 10° S 20:02:26 58° W 20:07:26 10° NNW visible
23 Mar 6.0 21:02:52 10° WSW 21:05:04 13° W 21:07:15 10° WNW visible
24 Mar 4.9 20:23:35 10° SSW 20:28:03 31° W 20:32:31 10° NW visible
25 Mar 3.3 19:46:09 10° S 19:51:13 75° WSW 19:56:18 10° NNW visible
26 Mar 5.8 20:50:33 10° SW 20:53:44 17° W 20:56:58 10° NW visible
27 Mar 4.4 20:12:03 10° SSW 20:16:47 40° W 20:21:33 10° NNW visible
28 Mar 3.0 19:34:56 10° SSE 19:40:00 84° ENE 19:45:06 10° N visible
29 Mar 5.5 20:38:35 10° SW 20:42:26 22° W 20:46:19 10° NW visible
30 Mar 3.9 20:00:37 10° S 20:05:32 52° W 20:10:30 10° NNW visible
